Lapse_Rate
6.2 6.3 6.3 6.4 6.3 6.2 6.2 6.2 6.3 6.2 6.1 6.2 6.4 6.5 6.4 6.5 6.5 6.6 6.5 6.3 6.3 6.3 6.4 6.4 6.0 5.8 5.8 6.0 6.3 6.4 6.4 6.2 5.8 5.9 6.3 6.4 6.3 6.4 6.5 6.5 6.5 6.5 6.5
6.0 6.2 6.3 6.4 6.5 6.7 6.8 6.6 6.5 6.4 6.6 6.5 6.3 6.4 6.4 6.5 6.6 6.6 6.7 6.6 6.4 6.4 6.3 6.4 6.4 6.0 5.8 5.9 6.0 6.2 6.3 6.0 6.2 6.3 6.3 6.3 6.3 6.3 6.5 6.5 6.5 6.3 6.5
5.4 5.5 5.7 5.8 6.0 6.2 6.4 6.7 6.9 7.0 6.8 6.6 6.6 6.7 6.6 6.6 6.6 6.6 6.6 6.7 6.6 6.4 6.3 6.2 6.4 6.3 6.0 5.9 6.0 6.1 6.0 6.3 6.1 6.4 6.2 6.3 6.2 6.2 6.4 6.6 6.5 6.4 6.4
6.0 6.2 6.3 6.3 6.4 6.6 6.6 6.6 6.7 6.7 6.8 7.1 7.1 6.8 6.7 6.8 6.6 6.6 6.7 6.6 6.7 6.6 6.4 6.4 6.2 6.3 6.1 5.9 5.9 6.1 6.2 6.1 6.2 6.2 6.2 6.1 6.1 6.2 6.2 6.4 6.6 6.5 6.2
5.7 5.9 6.0 6.1 6.3 6.5 6.7 6.9 7.0 7.0 7.1 7.2 7.2 7.1 7.1 7.0 6.8 6.7 6.6 6.5 6.6 6.7 6.5 6.3 6.2 6.2 6.2 6.0 5.8 5.9 5.9 6.0 6.2 6.0 6.1 6.1 6.1 6.1 6.0 6.1 6.4 6.5 6.3
5.2 5.4 5.6 5.8 5.9 6.0 6.1 6.2 6.5 6.6 6.8 7.0 7.1 7.3 7.3 7.1 7.0 7.0 6.8 6.6 6.4 6.5 6.6 6.5 6.3 6.1 6.1 6.3 6.0 5.8 5.9 5.7 6.0 6.1 5.9 6.1 6.1 6.0 5.9 5.8 6.1 6.4 6.4
4.8 4.8 4.8 5.0 5.2 5.3 5.3 5.5 5.8 6.1 6.2 6.4 6.7 6.9 7.1 7.1 7.2 7.1 7.1 6.7 6.4 6.4 6.3 6.5 6.6 6.4 6.0 5.9 6.2 5.9 5.8 5.8 6.0 6.0 6.2 6.0 6.0 6.0 5.9 5.7 5.7 6.0 6.2
4.8 4.9 5.1 5.2 5.3 5.3 5.2 5.1 5.2 5.4 5.4 5.5 5.8 6.0 6.4 6.5 6.7 6.8 6.9 7.0 7.0 6.4 6.1 6.2 6.4 6.6 6.4 6.0 5.7 6.0 5.9 5.7 5.7 6.0 6.1 6.1 6.0 6.0 6.0 5.6 5.5 5.8 5.6
4.4 4.5 4.6 4.7 4.9 5.0 4.9 4.8 4.5 4.6 4.7 4.1 4.4 4.9 5.3 5.6 6.2 6.0 6.0 6.5 6.8 6.9 6.5 5.9 6.1 6.1 6.4 6.4 6.0 5.7 6.0 5.8 5.8 5.7 6.0 6.0 6.0 5.9 5.9 5.8 5.6 5.5 5.6
3.8 3.8 4.0 4.0 4.3 4.3 3.8 3.4 3.6 3.8 3.9 3.8 3.4 3.3 3.3 3.3 3.8 5.4 4.5 4.9 5.1 5.7 6.2 6.4 5.9 5.5 5.6 5.9 6.1 6.0 5.8 5.9 5.6 5.9 5.8 6.1 6.3 6.0 5.9 5.8 5.9 5.6 5.5
3.2 3.2 3.3 3.5 3.3 2.7 2.9 3.2 3.2 3.1 2.9 2.7 2.5 2.3 2.1 1.9 1.8 1.9 3.8 3.7 3.7 4.1 4.2 5.0 5.5 5.3 4.9 5.0 5.5 5.7 5.8 6.0 6.1 5.7 5.9 5.9 6.0 6.2 6.0 5.9 5.8 5.9 5.8
2.7 2.9 3.1 2.9 2.6 2.6 2.7 2.6 2.5 2.3 2.2 2.1 1.8 1.4 1.2 1.3 1.6 1.8 2.2 2.5 2.8 3.4 3.6 3.4 3.6 3.7 3.9 4.0 4.4 5.0 5.6 5.6 5.9 5.9 5.9 6.0 5.9 5.9 6.2 6.1 6.0 5.9 6.2
2.6 2.6 2.4 2.2 2.3 2.4 2.4 2.2 2.2 2.3 2.3 1.9 1.4 1.2 1.2 1.5 1.6 1.8 2.1 2.7 2.8 3.1 3.5 3.7 3.3 3.1 3.2 3.5 3.8 4.3 5.0 5.4 5.7 5.7 5.6 6.0 5.8 5.9 6.3 6.2 6.0 5.9 6.0
2.4 2.3 2.2 2.3 2.4 2.2 2.1 2.2 2.4 2.4 2.1 1.9 1.8 1.7 2.1 2.4 2.6 2.7 2.9 3.4 3.7 3.6 3.7 4.0 3.8 3.5 3.3 3.3 3.5 3.7 4.0 4.7 5.1 5.5 5.4 6.1 5.7 6.0 5.6 6.3 6.0 5.9 6.0
2.2 2.3 2.4 2.4 2.2 2.1 2.1 2.1 2.4 2.4 2.2 2.2 2.4 2.6 3.4 4.6 5.3 5.4 5.4 5.3 5.4 6.1 6.7 6.3 5.5 4.9 3.9 3.3 3.4 3.6 3.7 3.7 4.5 5.1 5.5 5.9 5.7 5.8 5.6 5.8 6.3 5.8 5.9
2.3 2.4 2.4 2.3 2.1 2.1 2.1 2.3 2.5 2.5 2.6 3.0 4.2 5.2 5.5 5.3 5.1 4.9 4.9 4.9 4.9 5.1 6.3 6.4 6.7 6.0 5.7 4.5 3.5 3.6 3.6 3.6 3.8 4.4 5.0 5.5 5.9 5.7 5.9 5.5 6.0 6.1 6.0
2.5 2.5 2.3 2.2 2.3 2.3 2.3 2.5 2.7 3.1 4.1 5.4 5.4 5.3 5.4 5.0 4.9 4.8 4.6 4.5 4.6 4.6 4.9 6.0 6.0 6.2 6.0 6.1 4.8 3.5 3.7 3.7 3.7 4.0 4.1 4.5 5.4 5.5 5.4 5.8 5.7 5.9 6.1
2.4 2.2 2.1 2.2 2.4 2.4 2.6 3.1 4.0 4.9 5.5 5.5 5.5 5.6 5.6 5.3 5.4 5.4 5.3 4.9 4.4 4.3 4.2 5.1 5.3 5.8 5.7 6.2 6.3 4.9 3.7 3.7 3.5 3.9 4.1 3.8 4.4 5.3 5.4 5.3 5.7 5.7 5.6
2.0 2.1 2.1 2.4 2.5 2.7 3.6 4.6 5.2 5.4 5.4 5.6 5.5 5.5 5.6 5.6 5.9 5.8 5.7 5.5 5.4 5.2 4.6 4.5 4.9 5.2 5.4 5.7 6.3 6.1 5.1 4.0 3.5 3.5 4.0 4.3 4.3 5.0 5.0 5.2 5.3 5.3 5.8
2.0 2.2 2.4 2.5 2.9 3.9 5.1 5.3 5.3 5.5 5.6 5.6 5.5 5.5 5.7 5.8 6.0 6.1 6.0 6.0 5.9 5.6 5.6 5.1 4.4 4.8 5.1 5.3 5.7 6.2 6.0 5.0 3.9 3.5 3.9 4.4 4.6 5.1 5.1 5.2 5.2 5.8 5.5
2.2 2.4 2.8 3.1 4.1 5.1 5.4 5.4 5.4 5.6 5.5 5.5 5.4 5.7 5.8 6.2 6.4 6.5 6.4 6.5 6.1 6.0 5.9 5.8 5.1 4.6 5.0 4.9 5.3 5.3 5.6 5.8 4.8 3.9 3.6 4.1 4.4 5.2 4.8 4.8 5.3 5.4 5.6
2.5 2.7 3.1 4.4 5.3 5.4 5.4 5.4 5.4 5.6 5.6 5.5 5.5 5.9 6.1 6.3 6.4 6.4 6.4 6.4 6.2 6.3 6.2 6.0 5.8 5.5 5.3 4.8 5.0 4.8 4.8 5.4 5.6 4.4 3.8 4.1 4.2 5.3 5.0 5.0 5.1 5.1 4.9
3.0 3.3 4.5 5.2 5.4 5.5 5.5 5.6 5.7 5.4 5.4 5.5 5.6 5.8 6.1 6.3 6.4 6.6 6.8 6.6 6.5 6.4 6.2 6.1 6.0 6.3 6.0 5.2 4.7 4.6 4.5 4.9 5.6 5.7 4.0 4.1 4.2 4.4 4.7 4.7 4.9 5.1 5.2
4.0 4.8 5.3 5.3 5.4 5.6 5.7 5.9 5.7 5.3 5.3 5.5 5.7 5.9 6.1 6.5 6.6 6.5 6.7 6.8 7.0 6.8 6.8 6.3 5.9 6.1 6.2 5.6 5.0 4.9 4.7 4.7 5.2 5.9 4.7 4.3 4.2 4.2 4.8 4.9 4.7 5.3 5.1
5.3 5.4 5.4 5.3 5.4 5.8 5.8 5.9 5.7 5.3 5.2 5.5 5.8 6.0 6.2 6.4 6.7 6.6 6.6 6.6 6.8 7.2 7.0 6.6 6.5 6.4 6.3 5.7 5.3 5.1 5.1 4.7 5.2 5.6 5.4 3.9 4.9 4.0 4.4 5.4 4.7 4.8 4.9
5.7 5.5 5.5 5.3 5.5 5.9 6.0 6.0 5.7 5.2 5.2 5.4 5.8 6.3 6.3 6.3 6.7 6.7 6.6 6.8 6.9 7.0 7.1 7.1 6.8 6.7 6.6 5.9 5.6 4.8 4.7 5.0 5.0 5.5 5.6 4.4 4.6 3.6 4.4 5.4 4.6 5.1 5.4
Wind_Speed
7 9 12 14 15 17 15 13 12 12 12 16 15 16 15 15 16 15 17 22 23 24 25 25 24 24 22 18 20 22 21 18 17 19 24 24 23 21 22 22 21 20 20
10 8 8 7 8 10 11 12 11 11 10 13 13 16 16 15 15 15 16 18 22 23 24 26 25 24 24 23 20 23 23 23 22 20 25 26 26 24 24 24 22 21 19
13 13 11 11 14 17 15 14 9 8 8 12 8 14 14 15 16 16 16 17 19 21 22 24 25 26 24 24 23 23 26 26 27 26 26 28 28 28 27 26 25 25 24
7 7 7 9 14 14 12 10 5 4 4 6 6 6 9 15 17 17 16 17 18 18 18 21 24 26 27 25 27 26 25 27 28 28 29 30 30 30 30 28 27 27 27
3 4 5 7 10 10 9 7 4 3 4 4 7 7 7 8 11 14 16 17 18 19 17 21 25 26 28 28 27 28 28 28 29 31 31 32 32 32 32 31 30 29 29
6 6 7 8 9 6 3 3 3 3 3 5 9 8 7 8 10 6 8 15 14 15 17 18 15 14 19 21 24 25 27 31 29 31 33 33 34 34 34 34 33 31 31
8 10 10 9 10 4 5 6 4 5 4 5 3 9 5 5 2 4 11 8 12 18 19 20 17 13 16 22 21 26 22 22 25 32 33 35 35 36 36 36 36 35 33
8 8 7 6 7 3 5 5 4 5 3 5 5 5 5 2 5 9 5 7 8 17 17 17 19 20 19 15 21 22 25 25 29 30 33 35 37 38 39 39 38 38 36
8 7 7 6 5 3 3 3 3 4 4 5 5 3 4 4 13 1 12 4 12 8 12 16 18 20 19 21 22 20 23 24 26 27 29 32 39 40 41 41 41 40 39
8 9 6 5 4 4 3 4 4 2 3 6 4 4 3 4 4 8 5 11 8 10 12 11 16 18 20 19 18 24 21 21 23 27 27 30 37 40 42 43 43 43 41
7 7 8 6 4 5 4 3 4 5 2 2 3 4 2 4 6 8 12 8 11 7 8 9 15 16 17 22 19 18 17 20 22 25 28 30 28 42 42 44 44 45 44
5 8 9 8 6 4 3 3 4 4 4 4 2 4 6 6 7 6 10 11 11 14 10 8 8 13 17 18 22 20 22 24 24 26 27 30 30 24 38 44 45 46 46
2 5 8 6 5 7 7 7 4 5 4 4 6 7 6 7 6 7 9 11 12 10 9 10 6 12 15 19 19 21 22 24 25 25 28 30 29 26 30 40 44 46 45
3 7 8 9 9 11 10 8 4 3 4 5 6 6 7 7 6 7 8 10 13 13 11 13 8 11 13 15 22 27 20 26 27 28 29 30 31 27 24 27 27 47 46
6 8 9 8 9 9 9 7 4 6 5 7 9 9 7 8 8 8 8 9 10 14 16 10 9 5 13 17 22 23 22 27 32 34 30 27 30 27 25 27 30 31 45
5 5 5 6 7 8 8 6 7 8 8 7 7 9 9 8 9 8 9 9 9 12 17 9 10 12 14 16 22 23 24 32 31 31 30 30 29 27 25 25 29 32 45
6 5 6 7 7 7 8 8 9 10 11 10 10 11 13 13 10 10 9 10 11 10 14 14 11 11 14 12 14 23 24 20 24 31 31 31 29 27 27 25 28 26 30
8 6 6 8 9 9 10 10 11 11 11 12 13 12 14 10 14 13 11 14 12 12 12 20 14 12 14 13 13 13 10 22 21 27 32 32 29 30 25 26 27 26 30
7 8 8 9 10 10 11 11 11 12 12 13 14 14 16 15 16 13 14 13 12 11 12 13 13 11 11 10 10 12 12 13 19 29 30 28 25 28 26 24 26 27 33
7 8 8 9 10 11 12 12 12 13 13 14 15 16 17 16 18 18 16 15 14 12 13 13 12 12 11 10 9 10 11 8 11 12 19 21 25 26 28 22 22 19 26
6 6 8 10 10 9 9 11 12 13 14 15 17 16 17 22 29 26 12 14 14 12 12 12 12 11 11 10 10 9 10 10 12 10 10 8 6 6 8 17 14 12 21
5 6 8 9 10 8 18 22 19 11 12 13 9 12 10 21 21 30 31 35 21 17 17 13 12 13 15 10 9 8 8 9 9 3 5 9 5 8 8 8 15 16 15
4 8 8 9 10 10 20 22 22 12 10 10 11 11 11 10 18 14 22 28 28 32 29 15 18 17 16 13 12 12 12 10 11 9 11 11 8 9 8 10 18 20 13
7 7 8 9 9 9 21 21 22 13 8 11 13 12 12 13 13 15 14 16 18 18 19 14 14 13 13 11 13 12 13 13 12 11 9 11 9 11 10 10 23 22 18
7 6 8 8 7 10 20 21 18 10 11 12 9 10 10 11 19 24 14 11 16 18 22 31 31 30 30 28 23 10 11 10 12 11 6 8 11 11 11 11 11 13 2
7 7 8 7 12 10 19 20 18 8 8 8 10 8 17 17 25 23 15 12 13 12 14 14 13 21 25 20 26 16 9 10 10 11 10 7 10 6 4 3 1 2 2
Wind_Direction
24 18 9 6 9 12 2 357 353 352 354 353 350 346 342 337 334 336 330 330 329 326 322 321 318 313 311 300 243 230 227 227 220 194 200 198 193 192 183 187 177 174 178
28 29 15 6 9 8 358 348 341 344 355 347 345 341 333 326 325 326 326 325 320 319 318 314 313 310 307 300 284 242 233 233 233 212 200 197 195 192 189 188 184 173 181
26 18 12 6 358 358 352 351 346 2 349 344 337 333 324 328 328 318 313 312 312 314 312 309 308 306 304 301 297 282 243 236 234 222 208 200 197 194 194 191 191 182 183
28 29 17 0 351 354 351 341 355 345 338 333 326 319 328 322 310 307 304 312 310 305 306 308 304 299 298 297 295 292 283 243 231 225 215 205 201 197 196 197 195 191 191
13 38 25 356 351 354 348 346 341 335 329 323 324 321 317 297 293 311 316 306 307 305 305 310 310 306 299 296 293 289 284 277 242 228 219 211 205 201 200 198 199 197 198
11 32 3 356 0 354 338 331 328 317 321 321 323 312 291 286 300 308 306 317 322 354 354 346 329 337 340 332 313 302 290 282 270 240 225 216 210 206 203 201 198 199 200
26 6 357 351 352 355 339 339 329 337 338 328 314 325 265 260 261 351 338 339 346 351 345 339 350 360 345 343 337 332 331 335 303 256 235 221 215 210 206 204 200 198 201
5 338 327 321 326 333 332 335 345 336 319 356 347 323 348 328 14 335 351 334 2 342 332 338 335 347 339 345 334 330 331 328 328 320 247 230 218 212 208 206 205 201 200
322 306 286 266 273 284 295 302 311 335 337 345 22 7 337 333 336 10 328 357 340 326 338 332 329 332 329 327 320 323 319 331 322 316 306 260 225 217 213 208 206 204 200
314 304 302 294 283 280 277 280 309 333 347 320 328 315 257 282 298 316 321 317 307 331 316 320 322 323 324 317 312 315 308 323 322 324 315 296 240 222 215 213 209 205 202
319 329 327 324 313 289 281 285 308 311 312 298 295 317 306 282 264 273 297 307 305 310 312 309 309 312 319 309 308 301 318 321 319 323 323 326 323 226 220 214 212 208 203
304 330 333 324 312 301 297 294 274 250 253 253 259 261 265 268 281 284 288 297 295 307 305 303 301 307 302 302 301 306 319 316 313 311 316 318 315 317 232 217 213 212 206
305 306 307 301 297 298 296 284 264 259 255 252 245 257 259 265 271 276 282 291 293 293 297 292 286 297 299 301 296 313 315 315 311 313 309 308 315 311 326 227 217 212 211
290 297 298 311 316 307 294 286 271 263 250 258 251 249 267 273 278 278 279 291 297 294 287 289 291 286 284 307 306 310 312 312 306 308 306 303 306 310 318 308 257 213 208
308 314 320 307 304 295 288 287 284 277 266 263 265 268 267 273 274 271 269 268 274 289 285 288 292 280 295 292 295 299 305 304 302 301 296 296 295 298 311 300 296 264 206
291 297 305 296 288 284 280 277 283 275 267 265 265 265 264 263 262 261 261 261 259 267 282 282 280 285 285 286 288 295 298 296 297 293 291 293 287 289 300 310 310 334 201
283 285 281 278 283 284 282 276 268 266 265 266 263 261 261 260 260 258 257 257 259 257 268 278 278 281 283 281 287 286 284 283 290 288 285 288 282 284 285 294 301 304 308
275 272 275 280 281 279 275 271 271 271 268 265 264 262 262 259 256 254 252 253 252 254 260 273 275 278 275 277 273 274 280 281 282 284 281 281 279 269 272 278 293 290 306
260 265 272 280 279 274 272 269 264 266 265 262 262 259 258 254 254 251 247 248 251 251 252 261 270 271 275 276 276 276 277 274 277 280 277 277 282 278 269 277 288 299 298
255 263 259 272 267 267 272 273 271 265 262 260 257 254 255 255 253 251 247 244 245 249 253 259 265 270 271 274 270 279 279 278 285 280 282 278 276 273 267 269 276 290 333
263 264 277 273 269 270 271 268 260 260 259 260 259 259 257 257 258 254 247 244 238 243 246 251 258 263 264 267 265 271 274 283 282 279 274 273 290 296 277 267 263 305 310
281 272 265 269 280 274 282 288 289 283 274 268 278 274 264 279 271 268 268 250 230 231 234 238 247 251 255 252 256 256 266 279 286 272 322 293 289 285 285 276 269 271 298
270 274 270 272 271 272 289 291 294 292 288 278 281 278 280 281 287 278 263 261 260 256 245 231 241 242 247 242 246 250 254 259 270 276 289 288 285 278 271 268 267 267 278
263 270 276 274 272 284 298 302 295 296 287 279 278 272 275 279 282 288 259 252 248 246 250 257 252 246 236 237 243 252 261 269 277 272 265 275 283 278 283 275 268 259 261
273 269 278 279 271 286 299 302 305 299 285 280 273 271 277 288 291 294 293 294 249 245 247 246 247 253 257 257 253 241 242 250 265 267 256 268 277 279 280 273 264 242 341
270 283 285 283 287 296 300 305 309 295 292 294 287 278 294 305 301 301 301 296 287 273 247 243 242 251 257 259 260 257 250 244 252 270 256 244 264 260 283 291 22 284 49